When you browse on this site, cookies collect data to enhance your experience and personalize the content and advertising you see.
Visit our Privacy Policy to learn more. By continuing to use the site, you agree to this use of cookies and data.

Previsão horária em Arakul

Hoje, 6 Julho, Segunda-feira

Tempo Temperatura Precipitação Vento Pressão Humidade
00:00 +10°C° 0 mm 1 m/s 583 mmHg 77%
01:00 +10°C° 0 mm 1 m/s 583 mmHg 77%
02:00 +10°C° 0 mm 1 m/s 582 mmHg 77%
03:00 +10°C° 0 mm 1 m/s 582 mmHg 77%
04:00 +11°C° 0 mm 1 m/s 583 mmHg 74%
05:00 +12°C° 0 mm 1 m/s 584 mmHg 72%
06:00 +14°C° 0 mm 1 m/s 585 mmHg 69%
07:00 +15°C° 0 mm 1 m/s 585 mmHg 63%
08:00 +16°C° 0 mm 2 m/s 586 mmHg 57%
09:00 +18°C° 0 mm 2 m/s 587 mmHg 51%
10:00 +18°C° 0.1 mm 2 m/s 587 mmHg 51%
11:00 +19°C° 0.1 mm 3 m/s 587 mmHg 50%
12:00 +19°C° 0.1 mm 3 m/s 587 mmHg 49%
13:00 +19°C° 0.2 mm 3 m/s 586 mmHg 51%
14:00 +19°C° 0.2 mm 3 m/s 586 mmHg 53%
15:00 +18°C° 0.2 mm 2 m/s 586 mmHg 54%
16:00 +18°C° 0.1 mm 2 m/s 585 mmHg 56%
17:00 +18°C° 0.1 mm 2 m/s 585 mmHg 58%
18:00 +17°C° 0.1 mm 2 m/s 585 mmHg 59%
19:00 +15°C° 0 mm 1 m/s 584 mmHg 63%
20:00 +13°C° 0 mm 1 m/s 583 mmHg 66%
21:00 +11°C° 0 mm 1 m/s 582 mmHg 70%
22:00 +11°C° 0 mm 1 m/s 582 mmHg 70%
23:00 +10°C° 0 mm 1 m/s 582 mmHg 69%

Amanhã, 7 Julho, Terça-feira

Tempo Temperatura Precipitação Vento Pressão Humidade
00:00 +10°C° 0 mm 1 m/s 582 mmHg 69%
01:00 +10°C° 0 mm 1 m/s 581 mmHg 70%
02:00 +9°C° 0 mm 2 m/s 581 mmHg 70%
03:00 +8°C° 0 mm 2 m/s 581 mmHg 71%
04:00 +10°C° 0 mm 2 m/s 582 mmHg 69%
05:00 +12°C° 0 mm 2 m/s 583 mmHg 68%
06:00 +13°C° 0 mm 2 m/s 583 mmHg 67%
07:00 +15°C° 0 mm 2 m/s 584 mmHg 60%
08:00 +17°C° 0 mm 2 m/s 585 mmHg 53%
09:00 +18°C° 0 mm 2 m/s 585 mmHg 47%
10:00 +19°C° 0 mm 2 m/s 586 mmHg 46%
11:00 +20°C° 0 mm 2 m/s 586 mmHg 45%
12:00 +20°C° 0 mm 3 m/s 586 mmHg 44%
13:00 +20°C° 0 mm 3 m/s 586 mmHg 44%
14:00 +21°C° 0 mm 3 m/s 585 mmHg 44%
15:00 +21°C° 0 mm 3 m/s 585 mmHg 44%
16:00 +20°C° 0 mm 2 m/s 585 mmHg 48%
17:00 +19°C° 0 mm 2 m/s 584 mmHg 51%
18:00 +19°C° 0 mm 2 m/s 584 mmHg 55%
19:00 +16°C° 0 mm 2 m/s 583 mmHg 57%
20:00 +14°C° 0 mm 2 m/s 582 mmHg 59%
21:00 +12°C° 0 mm 2 m/s 582 mmHg 61%
22:00 +12°C° 0 mm 2 m/s 581 mmHg 60%
23:00 +12°C° 0 mm 2 m/s 581 mmHg 60%

Depois de amanhã, 8 Julho, Quarta-feira

Tempo Temperatura Precipitação Vento Pressão Humidade
00:00 +10°C° 0 mm 2 m/s 581 mmHg 59%
01:00 +10°C° 0 mm 2 m/s 581 mmHg 59%
02:00 +10°C° 0 mm 2 m/s 581 mmHg 59%
03:00 +10°C° 0 mm 2 m/s 581 mmHg 59%
04:00 +12°C° 0 mm 2 m/s 582 mmHg 60%
05:00 +14°C° 0 mm 2 m/s 583 mmHg 60%
06:00 +15°C° 0 mm 2 m/s 583 mmHg 60%
07:00 +17°C° 0 mm 2 m/s 584 mmHg 55%
08:00 +18°C° 0 mm 2 m/s 585 mmHg 50%
09:00 +20°C° 0 mm 2 m/s 586 mmHg 45%
10:00 +21°C° 0 mm 2 m/s 586 mmHg 46%
11:00 +21°C° 0 mm 2 m/s 586 mmHg 47%
12:00 +22°C° 0 mm 3 m/s 586 mmHg 47%
13:00 +23°C° 0.1 mm 2 m/s 586 mmHg 48%
14:00 +23°C° 0.1 mm 2 m/s 585 mmHg 48%
15:00 +23°C° 0.1 mm 2 m/s 585 mmHg 48%
16:00 +23°C° 0.2 mm 2 m/s 585 mmHg 53%
17:00 +21°C° 0.2 mm 2 m/s 585 mmHg 57%
18:00 +21°C° 0.2 mm 1 m/s 585 mmHg 61%
19:00 +19°C° 0.1 mm 1 m/s 584 mmHg 65%
20:00 +16°C° 0.1 mm 1 m/s 583 mmHg 70%
21:00 +13°C° 0.1 mm 1 m/s 583 mmHg 74%
22:00 +13°C° 0 mm 1 m/s 583 mmHg 74%
23:00 +13°C° 0 mm 1 m/s 583 mmHg 74%

9 Julho, Quinta-feira

Tempo Temperatura Precipitação Vento Pressão Humidade
00:00 +13°C° 0 mm 1 m/s 583 mmHg 73%
01:00 +13°C° 0 mm 1 m/s 583 mmHg 72%
02:00 +12°C° 0 mm 1 m/s 583 mmHg 71%
03:00 +12°C° 0 mm 1 m/s 583 mmHg 70%
04:00 +14°C° 0 mm 1 m/s 584 mmHg 69%
05:00 +15°C° 0 mm 1 m/s 585 mmHg 67%
06:00 +18°C° 0 mm 1 m/s 586 mmHg 65%
07:00 +19°C° 0.2 mm 1 m/s 586 mmHg 62%
08:00 +19°C° 0.2 mm 2 m/s 587 mmHg 60%
09:00 +19°C° 0.2 mm 2 m/s 587 mmHg 58%
10:00 +20°C° 1.2 mm 2 m/s 588 mmHg 59%
11:00 +20°C° 1.2 mm 2 m/s 588 mmHg 60%
12:00 +20°C° 1.2 mm 3 m/s 588 mmHg 61%
13:00 +20°C° 1.2 mm 3 m/s 588 mmHg 62%
14:00 +20°C° 1.2 mm 2 m/s 587 mmHg 63%
15:00 +19°C° 1.2 mm 2 m/s 587 mmHg 65%
16:00 +19°C° 0.9 mm 2 m/s 587 mmHg 68%
17:00 +18°C° 0.9 mm 2 m/s 587 mmHg 72%
18:00 +17°C° 0.9 mm 2 m/s 586 mmHg 75%
19:00 +16°C° 0.2 mm 1 m/s 586 mmHg 80%
20:00 +14°C° 0.2 mm 1 m/s 586 mmHg 85%
21:00 +12°C° 0.2 mm 1 m/s 585 mmHg 90%
22:00 +12°C° 0.1 mm 0 m/s 586 mmHg 89%
23:00 +12°C° 0.1 mm 0 m/s 586 mmHg 89%

10 Julho, Sexta-feira

Tempo Temperatura Precipitação Vento Pressão Humidade
00:00 +12°C° 0.1 mm 0 m/s 586 mmHg 89%
01:00 +12°C° 0 mm 0 m/s 586 mmHg 89%
02:00 +11°C° 0 mm 0 m/s 586 mmHg 90%
03:00 +10°C° 0 mm 0 m/s 585 mmHg 91%
04:00 +12°C° 0 mm 1 m/s 586 mmHg 90%
05:00 +13°C° 0 mm 1 m/s 587 mmHg 89%
06:00 +14°C° 0 mm 1 m/s 587 mmHg 88%
07:00 +15°C° 0.5 mm 1 m/s 588 mmHg 85%
08:00 +16°C° 0.5 mm 2 m/s 589 mmHg 83%
09:00 +17°C° 0.5 mm 2 m/s 589 mmHg 80%
10:00 +17°C° 1.7 mm 2 m/s 589 mmHg 80%
11:00 +17°C° 1.7 mm 2 m/s 589 mmHg 81%
12:00 +17°C° 1.7 mm 2 m/s 589 mmHg 82%
13:00 +17°C° 1.6 mm 2 m/s 589 mmHg 83%
14:00 +17°C° 1.6 mm 2 m/s 588 mmHg 84%
15:00 +16°C° 1.6 mm 1 m/s 588 mmHg 85%
16:00 +16°C° 0.8 mm 1 m/s 588 mmHg 85%
17:00 +16°C° 0.8 mm 1 m/s 588 mmHg 85%
18:00 +16°C° 0.8 mm 1 m/s 588 mmHg 85%
19:00 +15°C° 0.3 mm 1 m/s 587 mmHg 88%
20:00 +13°C° 0.3 mm 1 m/s 587 mmHg 91%
21:00 +11°C° 0.3 mm 0 m/s 587 mmHg 95%
22:00 +12°C° 0.1 mm 1 m/s 587 mmHg 95%
23:00 +12°C° 0.1 mm 1 m/s 587 mmHg 95%

11 Julho, Sábado

Tempo Temperatura Precipitação Vento Pressão Humidade
00:00 +12°C° 0.1 mm 1 m/s 587 mmHg 95%
01:00 +12°C° 0 mm 1 m/s 587 mmHg 95%
02:00 +12°C° 0 mm 1 m/s 587 mmHg 94%
03:00 +12°C° 0 mm 1 m/s 586 mmHg 93%
04:00 +12°C° 0.3 mm 1 m/s 587 mmHg 93%
05:00 +12°C° 0.3 mm 1 m/s 587 mmHg 92%
06:00 +13°C° 0.3 mm 1 m/s 587 mmHg 92%
07:00 +13°C° 1.3 mm 1 m/s 587 mmHg 92%
08:00 +13°C° 1.3 mm 1 m/s 587 mmHg 91%
09:00 +13°C° 1.3 mm 1 m/s 587 mmHg 91%
10:00 +13°C° 1.5 mm 1 m/s 587 mmHg 91%
11:00 +13°C° 1.5 mm 1 m/s 587 mmHg 92%
12:00 +13°C° 1.5 mm 1 m/s 587 mmHg 92%
13:00 +13°C° 2.1 mm 1 m/s 587 mmHg 92%
14:00 +13°C° 2.1 mm 1 m/s 587 mmHg 92%
15:00 +13°C° 2.1 mm 1 m/s 587 mmHg 91%
16:00 +13°C° 0.7 mm 1 m/s 586 mmHg 92%
17:00 +12°C° 0.7 mm 1 m/s 586 mmHg 93%
18:00 +12°C° 0.7 mm 2 m/s 586 mmHg 93%
19:00 +12°C° 0.3 mm 2 m/s 586 mmHg 94%
20:00 +12°C° 0.3 mm 2 m/s 586 mmHg 94%
21:00 +12°C° 0.3 mm 1 m/s 586 mmHg 94%
22:00 +12°C° 0.1 mm 1 m/s 586 mmHg 94%
23:00 +11°C° 0.1 mm 1 m/s 586 mmHg 94%
Mostrar mais